This is the latest recevied weather packets stored in our database for station/object KK7KRZ. If no packets are shown the sender has not sent any weather packets the latest 1 day(s).
| Time | Temp. | Humidity | Pressure | Rain* | Wind** | Luminosity | Snow |
|---|---|---|---|---|---|---|---|
| 1778058575 | 10.56° C | 93% | 1017.5 hPa | 0 mm | - | 0 W/m² | - |
| 1778058273 | 10.56° C | 93% | 1017.5 hPa | 0 mm | - | 0 W/m² | - |
| 1778057666 | 11.11° C | 93% | 1017.5 hPa | 0 mm | - | 0 W/m² | - |
| 1778057362 | 11.11° C | 93% | 1017.4 hPa | 0 mm | - | 0 W/m² | - |
| 1778057060 | 11.11° C | 92% | 1017.6 hPa | 0 mm | - | 0 W/m² | - |
| 1778054635 | 12.22° C | 89% | 1017.3 hPa | 0 mm | - | 0 W/m² | - |
| 1778054333 | 12.22° C | 89% | 1017.2 hPa | 0 mm | - | 0 W/m² | - |
| 1778054030 | 12.78° C | 89% | 1017.2 hPa | 0 mm | - | 0 W/m² | - |
| 1778053727 | 12.78° C | 88% | 1017.2 hPa | 0 mm | - | 0 W/m² | - |
| 1778053424 | 12.78° C | 87% | 1017.3 hPa | 0 mm | - | 0 W/m² | - |
| 1778052819 | 13.33° C | 86% | 1017.2 hPa | 0 mm | - | 0 W/m² | - |
| 1778052516 | 13.89° C | 85% | 1017 hPa | 0 mm | - | 0 W/m² | - |
| 1778051911 | 13.89° C | 85% | 1016.9 hPa | 0 mm | - | 0 W/m² | - |
| 1778051609 | 13.89° C | 84% | 1017.1 hPa | 0 mm | - | 0 W/m² | - |
| 1778051306 | 13.89° C | 84% | 1016.8 hPa | 0 mm | - | 0 W/m² | - |
| 1778050700 | 14.44° C | 85% | 1016.8 hPa | 0 mm | - | 0 W/m² | - |
| 1778050398 | 14.44° C | 85% | 1016.7 hPa | 0 mm | - | 0 W/m² | - |
| 1778050094 | 14.44° C | 84% | 1016.9 hPa | 0 mm | - | 0 W/m² | - |
| 1778049487 | 14.44° C | 84% | 1017 hPa | 0 mm | - | 0 W/m² | - |
| 1778048883 | 14.44° C | 84% | 1016.9 hPa | 0 mm | - | 0 W/m² | - |
| 1778048580 | 14.44° C | 84% | 1016.9 hPa | 0 mm | - | 0 W/m² | - |
| 1778047973 | 14.44° C | 84% | 1016.7 hPa | 0 mm | - | 0 W/m² | - |
| 1778047671 | 14.44° C | 84% | 1016.7 hPa | 0 mm | - | 0 W/m² | - |
| 1778047065 | 14.44° C | 84% | 1016.6 hPa | 0 mm | - | 0 W/m² | - |
| 1778046762 | 14.44° C | 84% | 1016.6 hPa | 0 mm | - | 0 W/m² | - |
* Rain latest hour (hover to see other rain measurements)
** Current wind speed in m/s (hover to see current wind gust speed)